Location: Napa Soda Springs
(38.3907°N, 122.2794°W)
Time: 21:39:25
(UTC+00:00)

Cosmos 1300 - Pass Details

Date: 29 October 2020
Orbit: 511 x 513 km, 82.5° (Epoch: 24 November)

Event Time Altitude Azimuth Distance (km) Brightness Sun altitude
Exits shadow 12:46:08 - 355° (N) 1,928 5.5 -21.4°
Reaches altitude 10° 12:46:35 10° 356° (N) 1,742 5.3 -21.4°
Maximum altitude 12:50:24 78° 83° (E) 529 2.7 -20.6°
Drops below altitude 10° 12:54:11 10° 169° (S) 1,727 5.5 -19.9°
Sets 12:56:18 0° 171° (S) 2,607 6.4 -19.5°
